Time,TemperatureF,DewpointF,PressureIn,WindDirection,WindDirectionDegrees,WindSpeedMPH,WindSpeedGustMPH,Humidity,HourlyPrecipIn,Conditions,Clouds,dailyrainin,SoftwareType,DateUTC
2013-04-30 00:00:00,61.3,59.0,28.87,SE,135,0.0,0.0,92,0.00,RA,SKC,0.00,WeatherDisplay:10.37,2013-04-30 04:00:00,
2013-04-30 00:01:00,61.3,59.0,28.86,SE,135,0.0,0.0,92,0.00,RA,SKC,0.00,WeatherDisplay:10.37,2013-04-30 04:01:00,
2013-04-30 00:06:00,61.3,59.0,28.86,SE,135,0.0,0.0,92,0.00,RA,SKC,0.00,WeatherDisplay:10.37,2013-04-30 04:06:00,
2013-04-30 00:11:00,61.2,58.8,28.86,NE,45,1.1,0.0,92,0.00,,SKC,0.00,WeatherDisplay:10.37,2013-04-30 04:11:00,
2013-04-30 00:16:00,61.2,58.8,28.86,South,180,0.0,0.0,92,0.00,,SKC,0.00,WeatherDisplay:10.37,2013-04-30 04:16:00,
2013-04-30 00:21:00,61.0,58.6,28.86,North,0,1.1,0.0,92,0.00,,SKC,0.00,WeatherDisplay:10.37,2013-04-30 04:21:00,
2013-04-30 00:26:00,61.0,58.6,28.86,North,0,1.1,0.0,92,0.00,,SKC,0.00,WeatherDisplay:10.37,2013-04-30 04:26:00,
2013-04-30 00:31:00,60.8,58.5,28.86,North,0,1.1,0.0,92,0.00,,SKC,0.00,WeatherDisplay:10.37,2013-04-30 04:31:00,
2013-04-30 00:36:00,60.8,58.8,28.87,North,0,0.0,0.0,93,0.00,,SKC,0.00,WeatherDisplay:10.37,2013-04-30 04:36:00,
2013-04-30 00:41:00,60.8,58.8,28.87,North,0,1.1,0.0,93,0.00,,SKC,0.00,WeatherDisplay:10.37,2013-04-30 04:41:00,
2013-04-30 00:46:00,60.8,58.8,28.87,NE,45,1.1,0.0,93,0.00,,SKC,0.00,WeatherDisplay:10.37,2013-04-30 04:46:00,
2013-04-30 00:51:00,60.8,58.8,28.87,SE,135,2.3,0.0,93,0.00,,SKC,0.00,WeatherDisplay:10.37,2013-04-30 04:51:00,
2013-04-30 00:56:00,60.8,58.8,28.87,SE,135,1.1,0.0,93,0.00,,SKC,0.00,WeatherDisplay:10.37,2013-04-30 04:56:00,
2013-04-30 01:01:00,60.8,58.8,28.87,East,90,1.1,0.0,93,0.00,,SKC,0.00,WeatherDisplay:10.37,2013-04-30 05:01:00,
2013-04-30 01:06:00,60.8,58.8,28.86,NE,45,1.1,0.0,93,0.00,,SKC,0.00,WeatherDisplay:10.37,2013-04-30 05:06:00,
2013-04-30 01:11:00,60.6,58.6,28.86,NE,45,1.1,0.0,93,0.00,,SKC,0.00,WeatherDisplay:10.37,2013-04-30 05:11:00,
2013-04-30 01:16:00,60.6,58.6,28.86,NE,45,0.0,0.0,93,0.00,,SKC,0.00,WeatherDisplay:10.37,2013-04-30 05:16:00,
2013-04-30 01:21:00,60.4,58.4,28.86,East,90,1.1,0.0,93,0.00,,SKC,0.00,WeatherDisplay:10.37,2013-04-30 05:21:00,
2013-04-30 01:26:00,60.4,58.4,28.86,NE,45,1.1,0.0,93,0.00,,SKC,0.00,WeatherDisplay:10.37,2013-04-30 05:26:00,
2013-04-30 01:31:00,60.4,58.4,28.86,NE,45,1.1,0.0,93,0.00,,SKC,0.00,WeatherDisplay:10.37,2013-04-30 05:31:00,
2013-04-30 01:36:00,60.4,58.4,28.86,South,180,1.1,0.0,93,0.00,,SKC,0.00,WeatherDisplay:10.37,2013-04-30 05:36:00,
2013-04-30 01:41:00,60.3,58.2,28.86,North,0,1.1,0.0,93,0.00,,SKC,0.00,WeatherDisplay:10.37,2013-04-30 05:41:00,
2013-04-30 01:46:00,60.3,58.2,28.86,NE,45,1.1,0.0,93,0.00,,SKC,0.00,WeatherDisplay:10.37,2013-04-30 05:46:00,
2013-04-30 01:51:00,60.3,58.2,28.86,North,0,1.1,0.0,93,0.00,,SKC,0.00,WeatherDisplay:10.37,2013-04-30 05:51:00,
2013-04-30 01:56:00,60.3,58.2,28.85,NE,45,0.0,0.0,93,0.00,,SKC,0.00,WeatherDisplay:10.37,2013-04-30 05:56:00,
2013-04-30 02:01:00,60.3,58.2,28.85,NE,45,1.1,0.0,93,0.00,,SKC,0.00,WeatherDisplay:10.37,2013-04-30 06:01:00,
2013-04-30 02:06:00,60.3,58.2,28.86,NE,45,1.1,0.0,93,0.00,,SKC,0.00,WeatherDisplay:10.37,2013-04-30 06:06:00,
2013-04-30 02:11:00,60.1,58.6,28.86,NE,45,0.0,0.0,95,0.00,,SKC,0.00,WeatherDisplay:10.37,2013-04-30 06:11:00,
2013-04-30 02:16:00,59.9,58.5,28.86,NNE,22,0.0,0.0,95,0.00,,SKC,0.00,WeatherDisplay:10.37,2013-04-30 06:16:00,
2013-04-30 02:21:00,59.9,58.5,28.86,NW,315,0.0,0.0,95,0.00,,SKC,0.00,WeatherDisplay:10.37,2013-04-30 06:21:00,
2013-04-30 02:26:00,59.9,58.5,28.86,NE,45,1.1,0.0,95,0.00,,SKC,0.00,WeatherDisplay:10.37,2013-04-30 06:26:00,
2013-04-30 02:31:00,59.9,58.5,28.86,North,0,1.1,0.0,95,0.00,,SKC,0.00,WeatherDisplay:10.37,2013-04-30 06:31:00,
2013-04-30 02:36:00,59.9,58.5,28.86,East,90,0.0,0.0,95,0.00,,SKC,0.00,WeatherDisplay:10.37,2013-04-30 06:36:00,
2013-04-30 02:41:00,59.9,58.5,28.86,East,90,1.1,0.0,95,0.00,,SKC,0.00,WeatherDisplay:10.37,2013-04-30 06:41:00,
2013-04-30 02:46:00,59.9,58.5,28.86,NE,45,0.0,0.0,95,0.00,,SKC,0.00,WeatherDisplay:10.37,2013-04-30 06:46:00,
2013-04-30 02:51:00,59.9,58.5,28.86,NE,45,1.1,0.0,95,0.00,,SKC,0.00,WeatherDisplay:10.37,2013-04-30 06:51:00,
2013-04-30 02:56:00,59.9,58.5,28.86,South,180,1.1,0.0,95,0.00,,SKC,0.00,WeatherDisplay:10.37,2013-04-30 06:56:00,
2013-04-30 03:01:00,59.9,58.5,28.86,NE,45,1.1,0.0,95,0.00,,SKC,0.00,WeatherDisplay:10.37,2013-04-30 07:01:00,
2013-04-30 03:06:00,59.7,58.3,28.86,NW,315,1.1,0.0,95,0.00,,SKC,0.00,WeatherDisplay:10.37,2013-04-30 07:06:00,
2013-04-30 03:11:00,59.7,58.3,28.87,North,0,1.1,0.0,95,0.00,,SKC,0.00,WeatherDisplay:10.37,2013-04-30 07:11:00,
2013-04-30 03:16:00,59.7,58.3,28.87,SE,135,1.1,0.0,95,0.00,,SKC,0.00,WeatherDisplay:10.37,2013-04-30 07:16:00,
2013-04-30 03:21:00,59.7,58.3,28.87,SE,135,1.1,0.0,95,0.00,,SKC,0.00,WeatherDisplay:10.37,2013-04-30 07:21:00,
2013-04-30 03:26:00,59.5,58.1,28.87,SE,135,0.0,0.0,95,0.00,,SKC,0.00,WeatherDisplay:10.37,2013-04-30 07:26:00,
2013-04-30 03:35:00,59.6,58.2,28.87,North,0,0.0,0.0,95,0.00,CLR,SKC,0.00,WeatherDisplay:10.37,2013-04-30 07:35:00,
2013-04-30 03:40:00,59.5,58.1,28.87,SW,225,1.1,0.0,95,0.00,CLR,SKC,0.00,WeatherDisplay:10.37,2013-04-30 07:40:00,
2013-04-30 03:45:00,59.5,58.1,28.87,East,90,1.1,0.0,95,0.00,CLR,SKC,0.00,WeatherDisplay:10.37,2013-04-30 07:45:00,
2013-04-30 03:50:00,59.5,58.1,28.87,North,0,1.1,0.0,95,0.00,CLR,SKC,0.00,WeatherDisplay:10.37,2013-04-30 07:50:00,
2013-04-30 03:55:00,59.5,58.1,28.87,SE,135,1.1,0.0,95,0.00,CLR,SKC,0.00,WeatherDisplay:10.37,2013-04-30 07:55:00,
2013-04-30 04:00:00,59.5,58.1,28.88,East,90,1.1,0.0,95,0.00,CLR,SKC,0.00,WeatherDisplay:10.37,2013-04-30 08:00:00,
2013-04-30 04:05:00,59.5,58.1,28.88,East,90,1.1,0.0,95,0.00,CLR,SKC,0.00,WeatherDisplay:10.37,2013-04-30 08:05:00,
2013-04-30 04:10:00,59.5,58.1,28.89,North,0,1.1,0.0,95,0.00,CLR,SKC,0.00,WeatherDisplay:10.37,2013-04-30 08:10:00,
2013-04-30 04:15:00,59.5,58.1,28.88,NE,45,0.0,0.0,95,0.00,CLR,SKC,0.00,WeatherDisplay:10.37,2013-04-30 08:15:00,
2013-04-30 04:20:00,59.4,57.9,28.89,NE,45,1.1,0.0,95,0.00,CLR,SKC,0.00,WeatherDisplay:10.37,2013-04-30 08:20:00,
2013-04-30 04:25:00,59.4,57.9,28.89,NE,45,1.1,0.0,95,0.00,CLR,SKC,0.00,WeatherDisplay:10.37,2013-04-30 08:25:00,
2013-04-30 04:30:00,59.4,57.9,28.89,NE,45,1.1,0.0,95,0.00,CLR,SKC,0.00,WeatherDisplay:10.37,2013-04-30 08:30:00,
2013-04-30 04:35:00,59.4,57.9,28.89,NE,45,1.1,0.0,95,0.00,CLR,SKC,0.00,WeatherDisplay:10.37,2013-04-30 08:35:00,
2013-04-30 04:40:00,59.4,57.9,28.89,North,0,0.0,0.0,95,0.00,CLR,SKC,0.00,WeatherDisplay:10.37,2013-04-30 08:40:00,
2013-04-30 04:45:00,59.4,57.9,28.90,NE,45,0.0,0.0,95,0.00,CLR,SKC,0.00,WeatherDisplay:10.37,2013-04-30 08:45:00,
2013-04-30 04:50:00,59.4,57.9,28.90,North,0,1.1,0.0,95,0.00,CLR,SKC,0.00,WeatherDisplay:10.37,2013-04-30 08:50:00,
2013-04-30 04:55:00,59.4,57.9,28.90,NE,45,1.1,0.0,95,0.00,CLR,SKC,0.00,WeatherDisplay:10.37,2013-04-30 08:55:00,
2013-04-30 05:00:00,59.4,57.9,28.90,WNW,292,0.0,0.0,95,0.00,CLR,SKC,0.00,WeatherDisplay:10.37,2013-04-30 09:00:00,
2013-04-30 05:05:00,59.4,57.9,28.90,SW,225,0.0,0.0,95,0.00,CLR,SKC,0.00,WeatherDisplay:10.37,2013-04-30 09:05:00,
2013-04-30 05:10:00,59.4,57.9,28.90,NW,315,0.0,0.0,95,0.00,CLR,SKC,0.00,WeatherDisplay:10.37,2013-04-30 09:10:00,
2013-04-30 05:15:00,59.2,57.7,28.90,NE,45,1.1,0.0,95,0.00,CLR,SKC,0.00,WeatherDisplay:10.37,2013-04-30 09:15:00,
2013-04-30 05:20:00,59.4,57.9,28.90,East,90,0.0,0.0,95,0.00,CLR,SKC,0.00,WeatherDisplay:10.37,2013-04-30 09:20:00,
2013-04-30 05:25:00,59.2,57.7,28.90,North,0,1.1,0.0,95,0.00,CLR,SKC,0.00,WeatherDisplay:10.37,2013-04-30 09:25:00,
2013-04-30 05:30:00,59.2,57.7,28.91,North,0,1.1,0.0,95,0.00,CLR,SKC,0.00,WeatherDisplay:10.37,2013-04-30 09:30:00,
2013-04-30 05:35:00,59.2,57.7,28.91,South,180,1.1,0.0,95,0.00,CLR,SKC,0.00,WeatherDisplay:10.37,2013-04-30 09:35:00,
2013-04-30 05:40:00,59.2,57.7,28.91,SE,135,0.0,0.0,95,0.00,CLR,SKC,0.00,WeatherDisplay:10.37,2013-04-30 09:40:00,
2013-04-30 05:45:00,59.2,57.7,28.91,NE,45,1.1,0.0,95,0.00,CLR,SKC,0.00,WeatherDisplay:10.37,2013-04-30 09:45:00,
2013-04-30 05:50:00,59.2,57.7,28.91,South,180,1.1,0.0,95,0.00,CLR,SKC,0.00,WeatherDisplay:10.37,2013-04-30 09:50:00,
2013-04-30 05:55:00,59.4,57.9,28.92,SE,135,1.1,0.0,95,0.00,CLR,SKC,0.00,WeatherDisplay:10.37,2013-04-30 09:55:00,
2013-04-30 06:00:00,59.2,57.7,28.92,SSE,158,0.0,2.0,95,0.00,CLR,SKC,0.00,WeatherDisplay:10.37,2013-04-30 10:00:00,
2013-04-30 06:05:00,59.2,57.7,28.92,SE,135,0.0,0.0,95,0.00,CLR,SKC,0.00,WeatherDisplay:10.37,2013-04-30 10:05:00,
2013-04-30 06:10:00,59.2,57.7,28.92,North,0,1.1,0.0,95,0.00,CLR,SKC,0.00,WeatherDisplay:10.37,2013-04-30 10:10:00,
2013-04-30 06:15:00,59.2,57.7,28.92,North,0,0.0,0.0,95,0.00,CLR,SKC,0.00,WeatherDisplay:10.37,2013-04-30 10:15:00,
2013-04-30 06:20:00,59.2,57.7,28.92,SE,135,0.0,0.0,95,0.00,CLR,SKC,0.00,WeatherDisplay:10.37,2013-04-30 10:20:00,
2013-04-30 06:25:00,59.2,57.7,28.92,South,180,1.1,0.0,95,0.00,CLR,SKC,0.00,WeatherDisplay:10.37,2013-04-30 10:25:00,
2013-04-30 06:30:00,59.0,57.9,28.93,South,180,1.1,0.0,96,0.00,CLR,SKC,0.00,WeatherDisplay:10.37,2013-04-30 10:30:00,
2013-04-30 06:35:00,59.0,57.9,28.93,South,180,1.1,0.0,96,0.00,CLR,SKC,0.00,WeatherDisplay:10.37,2013-04-30 10:35:00,
2013-04-30 06:40:00,59.0,57.9,28.93,North,0,0.0,0.0,96,0.00,CLR,SKC,0.00,WeatherDisplay:10.37,2013-04-30 10:40:00,
2013-04-30 06:45:00,58.8,57.7,28.93,North,0,1.1,0.0,96,0.00,CLR,SKC,0.00,WeatherDisplay:10.37,2013-04-30 10:45:00,
2013-04-30 06:50:00,58.8,57.7,28.94,NW,315,1.1,0.0,96,0.00,CLR,SKC,0.00,WeatherDisplay:10.37,2013-04-30 10:50:00,
2013-04-30 06:55:00,58.8,58.0,28.94,South,180,1.1,0.0,97,0.00,CLR,SKC,0.00,WeatherDisplay:10.37,2013-04-30 10:55:00,
2013-04-30 07:00:00,58.6,57.8,28.94,South,180,0.0,0.0,97,0.00,CLR,SKC,0.00,WeatherDisplay:10.37,2013-04-30 11:00:00,
2013-04-30 07:05:00,58.6,57.8,28.94,East,90,0.0,0.0,97,0.01,RA,SKC,0.01,WeatherDisplay:10.37,2013-04-30 11:05:00,
2013-04-30 07:10:00,58.6,57.8,28.94,North,0,0.0,0.0,97,0.01,RA,SKC,0.01,WeatherDisplay:10.37,2013-04-30 11:10:00,
2013-04-30 07:15:00,58.5,57.6,28.95,East,90,0.0,0.0,97,0.02,RA,SKC,0.02,WeatherDisplay:10.37,2013-04-30 11:15:00,
2013-04-30 07:20:00,58.5,57.6,28.95,East,90,0.0,0.0,97,0.02,RA,SKC,0.02,WeatherDisplay:10.37,2013-04-30 11:20:00,
2013-04-30 07:25:00,58.5,57.6,28.95,East,90,1.1,0.0,97,0.02,CLR,SKC,0.02,WeatherDisplay:10.37,2013-04-30 11:25:00,
2013-04-30 07:30:00,58.5,57.6,28.95,North,0,0.7,0.0,97,0.02,CLR,SKC,0.02,WeatherDisplay:10.37,2013-04-30 11:30:00,
2013-04-30 07:35:00,58.3,58.0,28.95,North,0,1.1,0.0,99,0.04,RA,SKC,0.04,WeatherDisplay:10.37,2013-04-30 11:35:00,
2013-04-30 07:40:00,58.3,58.0,28.96,North,0,1.1,0.0,99,0.04,RA,SKC,0.04,WeatherDisplay:10.37,2013-04-30 11:40:00,
2013-04-30 07:45:00,58.1,57.8,28.96,SE,135,1.1,0.0,99,0.07,RA,SKC,0.07,WeatherDisplay:10.37,2013-04-30 11:45:00,
2013-04-30 07:50:00,58.1,57.8,28.96,North,0,0.0,0.0,99,0.08,RA,SKC,0.08,WeatherDisplay:10.37,2013-04-30 11:50:00,
2013-04-30 07:55:00,57.9,57.6,28.96,South,180,0.0,0.0,99,0.09,RA,SKC,0.09,WeatherDisplay:10.37,2013-04-30 11:55:00,
2013-04-30 08:00:00,57.9,57.6,28.97,South,180,0.0,0.0,99,0.12,RA,SKC,0.12,WeatherDisplay:10.37,2013-04-30 12:00:00,
2013-04-30 08:05:00,57.9,57.6,28.97,South,180,0.0,0.0,99,0.11,RA,SKC,0.12,WeatherDisplay:10.37,2013-04-30 12:05:00,
2013-04-30 08:10:00,57.9,57.6,28.97,North,0,1.1,0.0,99,0.12,RA,SKC,0.13,WeatherDisplay:10.37,2013-04-30 12:10:00,
2013-04-30 08:15:00,57.9,57.6,28.97,North,0,0.0,0.0,99,0.11,RA,SKC,0.13,WeatherDisplay:10.37,2013-04-30 12:15:00,
2013-04-30 08:20:00,57.9,57.6,28.97,NE,45,1.1,0.0,99,0.11,,SKC,0.13,WeatherDisplay:10.37,2013-04-30 12:20:00,
2013-04-30 08:25:00,58.1,57.8,28.97,South,180,1.1,0.0,99,0.11,,SKC,0.13,WeatherDisplay:10.37,2013-04-30 12:25:00,
2013-04-30 08:30:00,58.3,58.0,28.98,NE,45,0.0,0.0,99,0.11,,SKC,0.13,WeatherDisplay:10.37,2013-04-30 12:30:00,
2013-04-30 08:35:00,58.5,58.2,28.97,SE,135,0.0,0.0,99,0.09,,SKC,0.13,WeatherDisplay:10.37,2013-04-30 12:35:00,
2013-04-30 08:40:00,58.8,58.5,28.98,SE,135,1.1,0.0,99,0.11,RA,SKC,0.14,WeatherDisplay:10.37,2013-04-30 12:40:00,
2013-04-30 08:45:00,58.8,58.5,28.98,NE,45,0.0,0.0,99,0.07,RA,SKC,0.14,WeatherDisplay:10.37,2013-04-30 12:45:00,
2013-04-30 08:50:00,58.6,58.4,28.98,North,0,1.1,0.0,99,0.06,,SKC,0.14,WeatherDisplay:10.37,2013-04-30 12:50:00,
2013-04-30 08:55:00,58.6,58.4,28.98,ESE,112,1.1,0.0,99,0.05,,SKC,0.14,WeatherDisplay:10.37,2013-04-30 12:55:00,
2013-04-30 09:01:00,58.5,58.2,28.98,SE,135,1.1,0.0,99,0.02,,SKC,0.14,WeatherDisplay:10.37,2013-04-30 13:01:00,
2013-04-30 09:06:00,58.5,58.2,28.99,NE,45,1.1,0.0,99,0.02,,SKC,0.14,WeatherDisplay:10.37,2013-04-30 13:06:00,
2013-04-30 09:11:00,58.5,58.2,28.99,SE,135,1.1,0.0,99,0.01,,SKC,0.14,WeatherDisplay:10.37,2013-04-30 13:11:00,
2013-04-30 09:16:00,58.5,58.2,28.99,NE,45,0.0,0.0,99,0.01,,SKC,0.14,WeatherDisplay:10.37,2013-04-30 13:16:00,
2013-04-30 09:21:00,58.6,58.4,28.99,East,90,0.0,0.0,99,0.01,,SKC,0.14,WeatherDisplay:10.37,2013-04-30 13:21:00,
2013-04-30 09:26:00,58.8,58.5,28.99,NE,45,0.0,0.0,99,0.01,,SKC,0.14,WeatherDisplay:10.37,2013-04-30 13:26:00,
2013-04-30 09:31:00,58.8,58.5,28.99,NE,45,1.1,0.0,99,0.01,,SKC,0.14,WeatherDisplay:10.37,2013-04-30 13:31:00,
2013-04-30 09:36:00,58.8,58.5,28.99,NE,45,1.1,0.0,99,0.01,,SKC,0.14,WeatherDisplay:10.37,2013-04-30 13:36:00,
2013-04-30 09:41:00,59.0,58.7,28.99,East,90,1.1,0.0,99,0.00,,SKC,0.14,WeatherDisplay:10.37,2013-04-30 13:41:00,
2013-04-30 09:46:00,59.0,58.7,29.00,South,180,1.1,0.0,99,0.00,,SKC,0.14,WeatherDisplay:10.37,2013-04-30 13:46:00,
2013-04-30 09:51:00,59.2,58.9,29.00,NE,45,1.1,0.0,99,0.00,,SKC,0.14,WeatherDisplay:10.37,2013-04-30 13:51:00,
2013-04-30 09:56:00,59.4,59.1,29.00,North,0,1.1,0.0,99,0.00,,SKC,0.14,WeatherDisplay:10.37,2013-04-30 13:56:00,
2013-04-30 10:01:00,59.5,59.3,28.99,South,180,0.0,0.0,99,0.00,,SKC,0.14,WeatherDisplay:10.37,2013-04-30 14:01:00,
2013-04-30 10:06:00,60.1,59.8,29.00,South,180,1.1,0.0,99,0.00,,SKC,0.14,WeatherDisplay:10.37,2013-04-30 14:06:00,
2013-04-30 10:11:00,60.4,59.6,29.00,South,180,1.1,0.0,97,0.00,,SKC,0.14,WeatherDisplay:10.37,2013-04-30 14:11:00,
2013-04-30 10:16:00,61.0,60.1,29.00,South,180,1.1,0.0,97,0.00,,SKC,0.14,WeatherDisplay:10.37,2013-04-30 14:16:00,
2013-04-30 10:21:00,61.3,60.2,29.00,NE,45,0.0,0.0,96,0.00,,SKC,0.14,WeatherDisplay:10.37,2013-04-30 14:21:00,
2013-04-30 10:26:00,61.5,60.1,29.00,NE,45,0.0,0.0,95,0.00,,SKC,0.14,WeatherDisplay:10.37,2013-04-30 14:26:00,
2013-04-30 10:31:00,61.5,59.8,28.99,NE,45,1.1,0.0,94,0.00,,SKC,0.14,WeatherDisplay:10.37,2013-04-30 14:31:00,
2013-04-30 10:36:00,61.7,59.7,28.99,South,180,1.1,0.0,93,0.00,,SKC,0.14,WeatherDisplay:10.37,2013-04-30 14:36:00,
2013-04-30 10:41:00,61.9,59.8,28.99,South,180,1.1,0.0,93,0.00,,SKC,0.14,WeatherDisplay:10.37,2013-04-30 14:41:00,
2013-04-30 10:46:00,62.2,59.6,28.99,South,180,1.1,0.0,91,0.00,,SKC,0.14,WeatherDisplay:10.37,2013-04-30 14:46:00,
2013-04-30 10:51:00,62.6,59.9,28.99,NE,45,1.1,0.0,91,0.00,,SKC,0.14,WeatherDisplay:10.37,2013-04-30 14:51:00,
2013-04-30 10:56:00,62.8,59.8,28.99,North,0,1.1,0.0,90,0.00,,SKC,0.14,WeatherDisplay:10.37,2013-04-30 14:56:00,
2013-04-30 11:01:00,62.6,59.3,28.99,North,0,0.0,0.0,89,0.00,,SKC,0.14,WeatherDisplay:10.37,2013-04-30 15:01:00,
2013-04-30 11:06:00,62.4,58.8,28.99,North,0,1.1,0.0,88,0.00,,SKC,0.14,WeatherDisplay:10.37,2013-04-30 15:06:00,
2013-04-30 11:11:00,62.4,58.8,29.00,East,90,0.0,0.0,88,0.00,,SKC,0.14,WeatherDisplay:10.37,2013-04-30 15:11:00,
2013-04-30 11:16:00,62.6,59.0,28.99,SE,135,1.1,0.0,88,0.00,,SKC,0.14,WeatherDisplay:10.37,2013-04-30 15:16:00,
2013-04-30 11:21:00,62.4,58.8,28.99,NE,45,0.0,0.0,88,0.00,,SKC,0.14,WeatherDisplay:10.37,2013-04-30 15:21:00,
2013-04-30 11:26:00,62.6,59.0,29.00,North,0,1.1,0.0,88,0.00,,SKC,0.14,WeatherDisplay:10.37,2013-04-30 15:26:00,
2013-04-30 11:31:00,62.6,58.7,28.99,NE,45,0.0,0.0,87,0.00,,SKC,0.14,WeatherDisplay:10.37,2013-04-30 15:31:00,
2013-04-30 11:36:00,62.6,58.7,29.00,North,0,1.1,0.0,87,0.00,,SKC,0.14,WeatherDisplay:10.37,2013-04-30 15:36:00,
2013-04-30 11:41:00,63.1,59.2,28.99,SSE,158,1.1,0.0,87,0.00,,SKC,0.14,WeatherDisplay:10.37,2013-04-30 15:41:00,
2013-04-30 11:46:00,63.7,59.7,28.99,North,0,1.1,0.0,87,0.00,,SKC,0.14,WeatherDisplay:10.37,2013-04-30 15:46:00,
2013-04-30 11:51:00,64.4,60.4,28.99,North,0,1.1,0.0,87,0.00,,SKC,0.14,WeatherDisplay:10.37,2013-04-30 15:51:00,
2013-04-30 11:56:00,65.3,61.0,28.99,NE,45,0.0,0.0,86,0.00,,SKC,0.14,WeatherDisplay:10.37,2013-04-30 15:56:00,
2013-04-30 12:01:00,65.3,60.3,28.99,South,180,0.0,0.0,84,0.00,,SKC,0.14,WeatherDisplay:10.37,2013-04-30 16:01:00,
2013-04-30 12:06:00,64.9,60.0,28.98,NE,45,0.0,0.0,84,0.00,,SKC,0.14,WeatherDisplay:10.37,2013-04-30 16:06:00,
2013-04-30 12:11:00,64.9,59.7,28.99,SE,135,1.1,0.0,83,0.00,,SKC,0.14,WeatherDisplay:10.37,2013-04-30 16:11:00,
2013-04-30 12:16:00,65.3,60.0,28.98,South,180,0.0,0.0,83,0.00,,SKC,0.14,WeatherDisplay:10.37,2013-04-30 16:16:00,
2013-04-30 12:21:00,65.3,60.0,28.98,North,0,0.0,0.0,83,0.00,,SKC,0.14,WeatherDisplay:10.37,2013-04-30 16:21:00,
2013-04-30 12:26:00,66.9,59.8,28.98,West,270,1.1,0.0,78,0.00,,SKC,0.14,WeatherDisplay:10.37,2013-04-30 16:26:00,
2013-04-30 12:31:00,67.6,60.2,28.98,South,180,1.1,0.0,77,0.00,,SKC,0.14,WeatherDisplay:10.37,2013-04-30 16:31:00,
2013-04-30 12:36:00,68.5,61.0,28.98,West,270,1.1,0.0,77,0.00,,SKC,0.14,WeatherDisplay:10.37,2013-04-30 16:36:00,
2013-04-30 12:41:00,68.7,60.1,28.97,West,270,1.1,0.0,74,0.00,,SKC,0.14,WeatherDisplay:10.37,2013-04-30 16:41:00,
2013-04-30 12:46:00,69.6,60.6,28.97,SE,135,1.1,0.0,73,0.00,,SKC,0.14,WeatherDisplay:10.37,2013-04-30 16:46:00,
2013-04-30 12:51:00,69.8,59.6,28.97,North,0,0.0,0.0,70,0.00,,SKC,0.14,WeatherDisplay:10.37,2013-04-30 16:51:00,
2013-04-30 12:56:00,70.5,60.3,28.97,South,180,0.0,0.0,70,0.00,,SKC,0.14,WeatherDisplay:10.37,2013-04-30 16:56:00,
2013-04-30 13:01:00,70.0,58.9,28.96,South,180,0.0,0.0,68,0.00,,SKC,0.14,WeatherDisplay:10.37,2013-04-30 17:01:00,
2013-04-30 13:06:00,70.3,59.7,28.96,South,180,0.0,0.0,69,0.00,,SKC,0.14,WeatherDisplay:10.37,2013-04-30 17:06:00,
2013-04-30 13:11:00,70.5,60.3,28.96,South,180,1.1,0.0,70,0.00,,SKC,0.14,WeatherDisplay:10.37,2013-04-30 17:11:00,
2013-04-30 13:16:00,71.8,60.2,28.95,South,180,0.0,0.0,67,0.00,,SKC,0.14,WeatherDisplay:10.37,2013-04-30 17:16:00,
2013-04-30 13:21:00,73.6,61.5,28.94,South,180,0.0,0.0,66,0.00,,SKC,0.14,WeatherDisplay:10.37,2013-04-30 17:21:00,
2013-04-30 13:26:00,74.5,61.5,28.94,East,90,0.0,0.0,64,0.00,,SKC,0.14,WeatherDisplay:10.37,2013-04-30 17:26:00,
2013-04-30 13:31:00,76.1,63.0,28.93,NW,315,1.1,0.0,64,0.00,,SKC,0.14,WeatherDisplay:10.37,2013-04-30 17:31:00,
2013-04-30 13:36:00,76.6,62.2,28.92,West,270,1.1,0.0,61,0.00,,SKC,0.14,WeatherDisplay:10.37,2013-04-30 17:36:00,
2013-04-30 13:41:00,76.6,60.8,28.91,SW,225,1.1,0.0,58,0.00,,SKC,0.14,WeatherDisplay:10.37,2013-04-30 17:41:00,
2013-04-30 13:46:00,74.3,59.5,28.91,South,180,0.0,0.0,60,0.00,,SKC,0.14,WeatherDisplay:10.37,2013-04-30 17:46:00,
2013-04-30 13:51:00,72.7,60.2,28.91,South,180,0.0,0.0,65,0.00,,SKC,0.14,WeatherDisplay:10.37,2013-04-30 17:51:00,
2013-04-30 13:56:00,71.8,59.4,28.91,SE,135,0.0,0.0,65,0.00,,SKC,0.14,WeatherDisplay:10.37,2013-04-30 17:56:00,
2013-04-30 14:01:00,71.4,59.5,28.91,South,180,1.6,0.0,66,0.00,,SKC,0.14,WeatherDisplay:10.37,2013-04-30 18:01:00,
2013-04-30 14:06:00,71.2,60.1,28.91,South,180,0.0,0.0,68,0.00,,SKC,0.14,WeatherDisplay:10.37,2013-04-30 18:06:00,
2013-04-30 14:11:00,73.2,62.0,28.90,South,180,1.1,0.0,68,0.00,,SKC,0.14,WeatherDisplay:10.37,2013-04-30 18:11:00,
2013-04-30 14:16:00,73.9,61.9,28.89,South,180,1.1,0.0,66,0.00,,SKC,0.14,WeatherDisplay:10.37,2013-04-30 18:16:00,
2013-04-30 14:21:00,73.9,61.9,28.87,South,180,1.1,0.0,66,0.00,,SKC,0.14,WeatherDisplay:10.37,2013-04-30 18:21:00,
2013-04-30 14:26:00,77.4,63.3,28.86,ESE,112,1.1,0.0,62,0.00,,SKC,0.14,WeatherDisplay:10.37,2013-04-30 18:26:00,
2013-04-30 14:31:00,78.1,60.1,28.85,SW,225,0.0,0.0,54,0.00,,SKC,0.14,WeatherDisplay:10.37,2013-04-30 18:31:00,
2013-04-30 14:36:00,77.5,60.1,28.86,North,0,0.0,0.0,55,0.00,,SKC,0.14,WeatherDisplay:10.37,2013-04-30 18:36:00,
2013-04-30 14:41:00,77.4,60.4,28.86,South,180,0.0,0.0,56,0.00,,SKC,0.14,WeatherDisplay:10.37,2013-04-30 18:41:00,
2013-04-30 14:47:00,74.8,60.5,28.87,South,180,0.0,0.0,61,0.00,,SKC,0.14,WeatherDisplay:10.37,2013-04-30 18:47:00,
2013-04-30 14:52:00,72.3,59.9,28.87,SE,135,1.1,0.0,65,0.00,,SKC,0.14,WeatherDisplay:10.37,2013-04-30 18:52:00,
2013-04-30 14:57:00,71.6,59.6,28.87,SE,135,0.0,0.0,66,0.00,,SKC,0.14,WeatherDisplay:10.37,2013-04-30 18:57:00,
2013-04-30 15:02:00,70.3,58.9,28.88,South,180,1.1,0.0,67,0.00,,SKC,0.14,WeatherDisplay:10.37,2013-04-30 19:02:00,
2013-04-30 15:07:00,70.2,59.1,28.87,South,180,1.1,0.0,68,0.00,,SKC,0.14,WeatherDisplay:10.37,2013-04-30 19:07:00,
2013-04-30 15:12:00,70.2,60.3,28.88,SW,225,1.1,0.0,71,0.00,,SKC,0.14,WeatherDisplay:10.37,2013-04-30 19:12:00,
2013-04-30 15:17:00,70.3,60.5,28.89,West,270,1.1,0.0,71,0.00,,SKC,0.14,WeatherDisplay:10.37,2013-04-30 19:17:00,
2013-04-30 15:22:00,71.4,60.3,28.89,SE,135,1.1,0.0,68,0.00,,SKC,0.14,WeatherDisplay:10.37,2013-04-30 19:22:00,
2013-04-30 15:27:00,72.7,60.2,28.88,South,180,1.1,0.0,65,0.00,,SKC,0.14,WeatherDisplay:10.37,2013-04-30 19:27:00,
2013-04-30 15:32:00,72.3,60.3,28.88,WNW,292,1.1,0.0,66,0.00,,SKC,0.14,WeatherDisplay:10.37,2013-04-30 19:32:00,
2013-04-30 15:37:00,71.4,59.5,28.88,South,180,0.0,0.0,66,0.00,,SKC,0.14,WeatherDisplay:10.37,2013-04-30 19:37:00,
2013-04-30 15:42:00,70.3,58.9,28.88,South,180,0.0,0.0,67,0.00,,SKC,0.14,WeatherDisplay:10.37,2013-04-30 19:42:00,
2013-04-30 15:47:00,69.8,59.2,28.89,North,0,1.1,0.0,69,0.00,,SKC,0.14,WeatherDisplay:10.37,2013-04-30 19:47:00,
2013-04-30 15:52:00,69.6,59.4,28.89,NW,315,1.1,0.0,70,0.00,,SKC,0.14,WeatherDisplay:10.37,2013-04-30 19:52:00,
2013-04-30 15:57:00,70.2,59.9,28.89,South,180,1.1,0.0,70,0.00,,SKC,0.14,WeatherDisplay:10.37,2013-04-30 19:57:00,
2013-04-30 16:02:00,72.1,60.6,28.88,South,180,1.1,0.0,67,0.00,,SKC,0.14,WeatherDisplay:10.37,2013-04-30 20:02:00,
2013-04-30 16:07:00,72.1,60.6,28.88,South,180,0.0,0.0,67,0.00,,SKC,0.14,WeatherDisplay:10.37,2013-04-30 20:07:00,
2013-04-30 16:12:00,77.7,62.2,28.87,SE,135,1.1,0.0,59,0.00,,SKC,0.14,WeatherDisplay:10.37,2013-04-30 20:12:00,
2013-04-30 16:17:00,79.3,61.8,28.88,South,180,0.0,0.0,55,0.00,,SKC,0.14,WeatherDisplay:10.37,2013-04-30 20:17:00,
2013-04-30 16:22:00,79.5,61.4,28.88,South,180,0.0,0.0,54,0.00,,SKC,0.14,WeatherDisplay:10.37,2013-04-30 20:22:00,
2013-04-30 16:27:00,78.3,60.2,28.89,SE,135,0.0,0.0,54,0.00,,SKC,0.14,WeatherDisplay:10.37,2013-04-30 20:27:00,
2013-04-30 16:32:00,77.5,61.1,28.89,South,180,1.1,0.0,57,0.00,,SKC,0.14,WeatherDisplay:10.37,2013-04-30 20:32:00,
2013-04-30 16:37:00,75.7,60.4,28.89,West,270,1.1,0.0,59,0.00,,SKC,0.14,WeatherDisplay:10.37,2013-04-30 20:37:00,
2013-04-30 16:42:00,73.9,59.6,28.89,SE,135,1.1,0.0,61,0.00,,SKC,0.14,WeatherDisplay:10.37,2013-04-30 20:42:00,
2013-04-30 16:47:00,72.9,60.4,28.89,SW,225,1.1,0.0,65,0.00,,SKC,0.14,WeatherDisplay:10.37,2013-04-30 20:47:00,
2013-04-30 16:52:00,73.0,61.0,28.89,SW,225,1.1,0.0,66,0.00,,SKC,0.14,WeatherDisplay:10.37,2013-04-30 20:52:00,
2013-04-30 16:57:00,72.1,58.8,28.90,SW,225,0.0,0.0,63,0.00,,SKC,0.14,WeatherDisplay:10.37,2013-04-30 20:57:00,
2013-04-30 17:02:00,72.1,60.2,28.90,SE,135,1.1,0.0,66,0.00,,SKC,0.14,WeatherDisplay:10.37,2013-04-30 21:02:00,
2013-04-30 17:07:00,71.8,59.8,28.90,SW,225,1.1,0.0,66,0.00,,SKC,0.14,WeatherDisplay:10.37,2013-04-30 21:07:00,
2013-04-30 17:12:00,71.8,59.8,28.90,East,90,1.1,0.0,66,0.00,,SKC,0.14,WeatherDisplay:10.37,2013-04-30 21:12:00,
2013-04-30 17:17:00,72.1,60.2,28.90,South,180,1.1,0.0,66,0.00,,SKC,0.14,WeatherDisplay:10.37,2013-04-30 21:17:00,
2013-04-30 17:22:00,72.0,59.1,28.90,SW,225,1.1,0.0,64,0.00,,SKC,0.14,WeatherDisplay:10.37,2013-04-30 21:22:00,
2013-04-30 17:27:00,71.8,59.8,28.90,South,180,1.1,0.0,66,0.00,,SKC,0.14,WeatherDisplay:10.37,2013-04-30 21:27:00,
2013-04-30 17:32:00,71.8,59.4,28.90,NW,315,2.3,0.0,65,0.00,,SKC,0.14,WeatherDisplay:10.37,2013-04-30 21:32:00,
2013-04-30 17:37:00,71.8,59.8,28.90,South,180,1.1,0.0,66,0.00,,SKC,0.14,WeatherDisplay:10.37,2013-04-30 21:37:00,
2013-04-30 17:42:00,71.8,59.4,28.90,South,180,1.1,0.0,65,0.00,,SKC,0.14,WeatherDisplay:10.37,2013-04-30 21:42:00,
2013-04-30 17:47:00,71.8,58.9,28.90,South,180,1.1,0.0,64,0.00,,SKC,0.14,WeatherDisplay:10.37,2013-04-30 21:47:00,
2013-04-30 17:52:00,71.6,58.3,28.91,South,180,0.0,0.0,63,0.00,,SKC,0.14,WeatherDisplay:10.37,2013-04-30 21:52:00,
2013-04-30 17:57:00,71.2,58.9,28.91,SE,135,1.1,0.0,65,0.00,,SKC,0.14,WeatherDisplay:10.37,2013-04-30 21:57:00,
2013-04-30 18:02:00,71.2,59.3,28.91,SW,225,1.1,0.0,66,0.00,,SKC,0.14,WeatherDisplay:10.37,2013-04-30 22:02:00,
2013-04-30 18:07:00,71.2,58.4,28.91,South,180,1.1,0.0,64,0.00,,SKC,0.14,WeatherDisplay:10.37,2013-04-30 22:07:00,
2013-04-30 18:12:00,70.9,59.8,28.91,SE,135,1.1,0.0,68,0.00,,SKC,0.14,WeatherDisplay:10.37,2013-04-30 22:12:00,
2013-04-30 18:17:00,71.1,59.5,28.91,NE,45,1.1,0.0,67,0.00,,SKC,0.14,WeatherDisplay:10.37,2013-04-30 22:17:00,
2013-04-30 18:22:00,71.1,59.1,28.92,South,180,1.1,0.0,66,0.00,,SKC,0.14,WeatherDisplay:10.37,2013-04-30 22:22:00,
2013-04-30 18:27:00,70.9,59.0,28.92,SW,225,1.1,0.0,66,0.00,,SKC,0.14,WeatherDisplay:10.37,2013-04-30 22:27:00,
2013-04-30 18:32:00,70.3,59.3,28.93,South,180,1.1,0.0,68,0.00,,SKC,0.14,WeatherDisplay:10.37,2013-04-30 22:32:00,
2013-04-30 18:37:00,70.0,58.9,28.93,SE,135,1.1,0.0,68,0.00,,SKC,0.14,WeatherDisplay:10.37,2013-04-30 22:37:00,
2013-04-30 18:42:00,69.6,57.8,28.94,South,180,0.0,0.0,66,0.00,,SKC,0.14,WeatherDisplay:10.37,2013-04-30 22:42:00,
2013-04-30 18:47:00,69.4,58.4,28.94,South,180,1.1,0.0,68,0.00,,SKC,0.14,WeatherDisplay:10.37,2013-04-30 22:47:00,
2013-04-30 18:52:00,69.4,58.4,28.94,North,0,1.1,0.0,68,0.00,,SKC,0.14,WeatherDisplay:10.37,2013-04-30 22:52:00,
2013-04-30 18:57:00,69.3,58.2,28.94,South,180,1.1,0.0,68,0.00,,SKC,0.14,WeatherDisplay:10.37,2013-04-30 22:57:00,
2013-04-30 19:02:00,69.3,57.8,28.95,South,180,1.1,0.0,67,0.00,,SKC,0.14,WeatherDisplay:10.37,2013-04-30 23:02:00,
2013-04-30 19:07:00,69.3,58.2,28.95,SE,135,1.1,0.0,68,0.00,,SKC,0.14,WeatherDisplay:10.37,2013-04-30 23:07:00,
2013-04-30 19:12:00,69.3,58.7,28.95,North,0,1.1,0.0,69,0.00,,SKC,0.14,WeatherDisplay:10.37,2013-04-30 23:12:00,
2013-04-30 19:17:00,68.9,58.7,28.96,SE,135,1.1,0.0,70,0.00,,SKC,0.14,WeatherDisplay:10.37,2013-04-30 23:17:00,
2013-04-30 19:22:00,68.9,59.1,28.96,SE,135,1.1,0.0,71,0.00,,SKC,0.14,WeatherDisplay:10.37,2013-04-30 23:22:00,
2013-04-30 19:27:00,68.5,58.8,28.96,SE,135,1.1,0.0,71,0.00,,SKC,0.14,WeatherDisplay:10.37,2013-04-30 23:27:00,
2013-04-30 19:32:00,68.2,58.8,28.95,South,180,1.1,0.0,72,0.00,,SKC,0.14,WeatherDisplay:10.37,2013-04-30 23:32:00,
2013-04-30 19:37:00,67.8,58.5,28.95,South,180,1.1,0.0,72,0.00,,SKC,0.14,WeatherDisplay:10.37,2013-04-30 23:37:00,
2013-04-30 19:42:00,67.5,58.5,28.94,NE,45,1.1,0.0,73,0.00,,SKC,0.14,WeatherDisplay:10.37,2013-04-30 23:42:00,
2013-04-30 19:47:00,67.3,58.7,28.95,NE,45,1.1,0.0,74,0.00,,SKC,0.14,WeatherDisplay:10.37,2013-04-30 23:47:00,
2013-04-30 19:52:00,66.9,58.7,28.95,NE,45,1.1,0.0,75,0.00,,SKC,0.14,WeatherDisplay:10.37,2013-04-30 23:52:00,
2013-04-30 19:57:00,66.6,58.4,28.95,SE,135,1.1,0.0,75,0.00,,SKC,0.14,WeatherDisplay:10.37,2013-04-30 23:57:00,
2013-04-30 20:02:00,66.0,58.2,28.96,North,0,1.1,0.0,76,0.00,,SKC,0.14,WeatherDisplay:10.37,2013-05-01 00:02:00,
2013-04-30 20:07:00,65.7,57.9,28.96,SE,135,1.1,0.0,76,0.00,,SKC,0.14,WeatherDisplay:10.37,2013-05-01 00:07:00,
2013-04-30 20:12:00,65.5,58.4,28.96,SW,225,1.1,0.0,78,0.00,,SKC,0.14,WeatherDisplay:10.37,2013-05-01 00:12:00,
2013-04-30 20:17:00,65.3,58.3,28.96,NE,45,1.1,0.0,78,0.00,,SKC,0.14,WeatherDisplay:10.37,2013-05-01 00:17:00,
2013-04-30 20:22:00,65.1,58.1,28.97,NE,45,1.1,0.0,78,0.00,,SKC,0.14,WeatherDisplay:10.37,2013-05-01 00:22:00,
2013-04-30 20:27:00,64.8,57.7,28.98,NE,45,1.1,0.0,78,0.00,,SKC,0.14,WeatherDisplay:10.37,2013-05-01 00:27:00,
2013-04-30 20:32:00,64.6,57.9,28.98,South,180,1.1,0.0,79,0.00,,SKC,0.14,WeatherDisplay:10.37,2013-05-01 00:32:00,
2013-04-30 20:37:00,64.4,58.1,28.98,SE,135,1.1,0.0,80,0.00,,SKC,0.14,WeatherDisplay:10.37,2013-05-01 00:37:00,
2013-04-30 20:42:00,64.2,57.9,28.98,SW,225,1.1,0.0,80,0.00,,SKC,0.14,WeatherDisplay:10.37,2013-05-01 00:42:00,
2013-04-30 20:47:00,64.0,58.1,28.98,South,180,1.1,0.0,81,0.00,,SKC,0.14,WeatherDisplay:10.37,2013-05-01 00:47:00,
2013-04-30 20:52:00,63.9,57.9,28.98,East,90,0.0,0.0,81,0.00,,SKC,0.14,WeatherDisplay:10.37,2013-05-01 00:52:00,
2013-04-30 20:57:00,63.7,58.1,28.98,SW,225,1.1,0.0,82,0.00,,SKC,0.14,WeatherDisplay:10.37,2013-05-01 00:57:00,
2013-04-30 21:02:00,63.7,58.1,28.98,NE,45,1.1,0.0,82,0.00,,SKC,0.14,WeatherDisplay:10.37,2013-05-01 01:02:00,
2013-04-30 21:07:00,63.5,57.9,28.98,SW,225,1.1,0.0,82,0.00,,SKC,0.14,WeatherDisplay:10.37,2013-05-01 01:07:00,
2013-04-30 21:12:00,63.3,57.7,28.98,North,0,1.1,0.0,82,0.00,,SKC,0.14,WeatherDisplay:10.37,2013-05-01 01:12:00,
2013-04-30 21:17:00,63.1,57.6,28.98,South,180,1.1,0.0,82,0.00,,SKC,0.14,WeatherDisplay:10.37,2013-05-01 01:17:00,
2013-04-30 21:22:00,62.8,57.2,28.98,NE,45,0.0,0.0,82,0.00,,SKC,0.14,WeatherDisplay:10.37,2013-05-01 01:22:00,
2013-04-30 21:28:00,62.6,57.0,28.98,SE,135,1.1,0.0,82,0.00,,SKC,0.14,WeatherDisplay:10.37,2013-05-01 01:28:00,
2013-04-30 21:33:00,62.4,57.2,28.99,SE,135,1.1,0.0,83,0.00,,SKC,0.14,WeatherDisplay:10.37,2013-05-01 01:33:00,
2013-04-30 21:38:00,62.2,57.0,29.00,NE,45,1.1,0.0,83,0.00,,SKC,0.14,WeatherDisplay:10.37,2013-05-01 01:38:00,
2013-04-30 21:43:00,62.2,57.3,29.01,North,0,1.1,0.0,84,0.00,,SKC,0.14,WeatherDisplay:10.37,2013-05-01 01:43:00,
2013-04-30 21:48:00,62.1,57.2,29.02,East,90,0.0,0.0,84,0.00,,SKC,0.14,WeatherDisplay:10.37,2013-05-01 01:48:00,
2013-04-30 21:53:00,62.1,57.2,29.02,East,90,1.1,0.0,84,0.00,,SKC,0.14,WeatherDisplay:10.37,2013-05-01 01:53:00,
2013-04-30 21:58:00,62.1,57.2,29.02,East,90,1.1,0.0,84,0.00,,SKC,0.14,WeatherDisplay:10.37,2013-05-01 01:58:00,
2013-04-30 22:03:00,62.1,57.2,29.02,East,90,1.1,0.0,84,0.00,,SKC,0.14,WeatherDisplay:10.37,2013-05-01 02:03:00,
2013-04-30 22:08:00,61.9,57.3,29.02,SE,135,1.1,0.0,85,0.00,,SKC,0.14,WeatherDisplay:10.37,2013-05-01 02:08:00,
2013-04-30 22:13:00,61.9,57.3,29.02,SE,135,1.1,0.0,85,0.00,,SKC,0.14,WeatherDisplay:10.37,2013-05-01 02:13:00,
2013-04-30 22:18:00,61.7,57.1,29.02,South,180,1.1,0.0,85,0.00,,SKC,0.14,WeatherDisplay:10.37,2013-05-01 02:18:00,
2013-04-30 22:23:00,61.3,57.1,29.03,SE,135,0.0,0.0,86,0.00,,SKC,0.14,WeatherDisplay:10.37,2013-05-01 02:23:00,
2013-04-30 22:28:00,61.2,56.9,29.04,SE,135,1.1,0.0,86,0.00,,SKC,0.14,WeatherDisplay:10.37,2013-05-01 02:28:00,
2013-04-30 22:33:00,61.2,56.9,29.03,SE,135,0.0,0.0,86,0.00,,SKC,0.14,WeatherDisplay:10.37,2013-05-01 02:33:00,
2013-04-30 22:38:00,60.6,56.7,29.03,SE,135,0.0,0.0,87,0.00,,SKC,0.14,WeatherDisplay:10.37,2013-05-01 02:38:00,
2013-04-30 22:43:00,60.4,56.6,29.04,SE,135,1.1,0.0,87,0.00,,SKC,0.14,WeatherDisplay:10.37,2013-05-01 02:43:00,
2013-04-30 22:48:00,60.1,56.8,29.03,SE,135,1.1,0.0,89,0.00,,SKC,0.14,WeatherDisplay:10.37,2013-05-01 02:48:00,
2013-04-30 22:53:00,59.7,56.8,29.03,South,180,0.0,0.0,90,0.00,,SKC,0.14,WeatherDisplay:10.37,2013-05-01 02:53:00,
2013-04-30 22:58:00,59.5,56.6,29.03,NE,45,0.0,0.0,90,0.00,,SKC,0.14,WeatherDisplay:10.37,2013-05-01 02:58:00,
2013-04-30 23:03:00,59.5,56.9,29.03,NE,45,1.1,0.0,91,0.00,,SKC,0.14,WeatherDisplay:10.37,2013-05-01 03:03:00,
2013-04-30 23:08:00,59.5,56.9,29.03,North,0,1.1,0.0,91,0.00,,SKC,0.14,WeatherDisplay:10.37,2013-05-01 03:08:00,
2013-04-30 23:13:00,59.5,56.9,29.03,North,0,1.1,0.0,91,0.00,,SKC,0.14,WeatherDisplay:10.37,2013-05-01 03:13:00,
2013-04-30 23:18:00,59.5,57.2,29.03,South,180,0.0,0.0,92,0.00,,SKC,0.14,WeatherDisplay:10.37,2013-05-01 03:18:00,
2013-04-30 23:23:00,59.4,56.7,29.03,NW,315,0.0,0.0,91,0.00,,SKC,0.14,WeatherDisplay:10.37,2013-05-01 03:23:00,
2013-04-30 23:28:00,59.2,56.6,29.03,East,90,1.1,0.0,91,0.00,,SKC,0.14,WeatherDisplay:10.37,2013-05-01 03:28:00,
2013-04-30 23:33:00,59.4,57.0,29.03,SE,135,0.0,0.0,92,0.00,,SKC,0.14,WeatherDisplay:10.37,2013-05-01 03:33:00,
2013-04-30 23:38:00,59.4,57.0,29.03,South,180,1.1,0.0,92,0.00,,SKC,0.14,WeatherDisplay:10.37,2013-05-01 03:38:00,
2013-04-30 23:43:00,59.4,57.0,29.03,South,180,0.0,0.0,92,0.00,,SKC,0.14,WeatherDisplay:10.37,2013-05-01 03:43:00,
2013-04-30 23:48:00,59.5,56.9,29.03,NW,315,1.1,0.0,91,0.00,,SKC,0.14,WeatherDisplay:10.37,2013-05-01 03:48:00,
2013-04-30 23:53:00,59.5,56.9,29.03,NW,315,1.1,0.0,91,0.00,,SKC,0.14,WeatherDisplay:10.37,2013-05-01 03:53:00,
2013-04-30 23:58:00,59.4,56.7,29.03,South,180,0.0,0.0,91,0.00,,SKC,0.14,WeatherDisplay:10.37,2013-05-01 03:58:00,